CW2931 Weather Reports


Display with metric or nautical units.
time (UTC)temp
F
wind
direction
speed
MPH
gust
MPH
rain 1hr
in
rain 24hr
in
rain mn
in
humidity
%
barometer
mb
20180721074109 71 182 0.0 3.0 0.00 0.03 0.00 83 1005.5
20180721073110 71 155 2.0 5.0 0.00 0.03 0.00 83 1005.5
20180721072110 71 171 1.0 9.0 0.00 0.03 0.00 83 1005.7
20180721071109 71 154 2.0 6.0 0.00 0.03 0.00 82 1005.7
20180721070117 71 136 0.0 7.0 0.00 0.03 0.00 82 1005.8
20180721065109 71 133 2.0 5.0 0.00 0.03 0.00 81 1005.8
20180721064110 72 182 1.0 6.0 0.00 0.03 0.00 80 1006.0
20180721063109 72 201 4.0 7.0 0.00 0.03 0.00 79 1006.2
20180721062109 72 236 1.0 6.0 0.00 0.03 0.00 79 1006.2
20180721061110 72 189 1.0 5.0 0.00 0.03 0.00 78 1006.3
20180721060118 72 228 3.0 6.0 0.00 0.03 0.00 78 1006.3
20180721055110 72 150 3.0 7.0 0.00 0.03 0.00 78 1006.4
20180721054109 72 141 1.0 6.0 0.00 0.03 0.00 77 1006.4
20180721053110 72 166 3.0 7.0 0.00 0.03 0.00 76 1006.6
20180721052109 73 181 4.0 9.0 0.00 0.03 0.00 75 1006.7
20180721051110 73 216 3.0 14.0 0.00 0.03 0.00 73 1006.8
20180721050118 73 202 4.0 7.0 0.00 0.03 0.00 75 1006.8
20180721045109 74 173 3.0 8.0 0.00 0.03 0.00 74 1006.8
20180721044109 74 133 4.0 6.0 0.00 0.03 0.00 74 1006.8
20180721043109 74 205 3.0 7.0 0.00 0.03 0.00 74 1006.9
20180721042112 74 183 1.0 9.0 0.00 0.03 0.00 73 1006.8
20180721041109 74 214 2.0 9.0 0.00 0.03 0.00 72 1006.9
20180721040118 74 194 3.0 9.0 0.00 0.03 0.00 72 1006.9
20180721035110 74 128 5.0 12.0 0.00 0.03 0.03 72 1006.9
20180721034109 74 166 6.0 12.0 0.00 0.03 0.03 73 1006.9
20180721033109 74 160 2.0 5.0 0.00 0.03 0.03 74 1006.9
20180721032111 74 248 1.0 3.0 0.00 0.03 0.03 74 1006.9
20180721031110 74 177 2.0 5.0 0.00 0.03 0.03 74 1006.9
20180721030118 75 207 1.0 6.0 0.00 0.03 0.03 74 1006.9
20180721025109 75 178 2.0 3.0 0.00 0.03 0.03 74 1006.9
20180721024110 75 193 2.0 6.0 0.00 0.03 0.03 74 1007.0
20180721023109 74 129 3.0 7.0 0.00 0.03 0.03 73 1007.2
20180721022110 75 218 3.0 7.0 0.00 0.03 0.03 73 1007.0
20180721021109 75 167 1.0 3.0 0.00 0.03 0.03 72 1006.9
20180721020118 75 129 2.0 5.0 0.00 0.03 0.03 72 1006.9
20180721015110 75 146 1.0 3.0 0.00 0.03 0.03 71 1006.7
20180721014110 75 167 0.0 5.0 0.00 0.03 0.03 70 1006.7
20180721013110 75 174 1.0 3.0 0.00 0.03 0.03 70 1006.6
20180721012110 75 152 1.0 3.0 0.00 0.03 0.03 69 1006.5
20180721011109 75 150 2.0 3.0 0.00 0.03 0.03 68 1006.4
20180721010118 76 114 2.0 5.0 0.00 0.03 0.03 68 1006.4
20180721005110 76 183 2.0 5.0 0.00 0.03 0.03 67 1006.4
20180721004110 76 123 2.0 5.0 0.00 0.03 0.03 66 1006.5
20180721003109 76 195 3.0 8.0 0.00 0.03 0.03 65 1006.6
20180721002111 76 153 3.0 6.0 0.00 0.03 0.03 65 1006.8
20180721001110 76 143 2.0 10.0 0.00 0.03 0.03 65 1006.9
20180721000117 76 223 3.0 12.0 0.00 0.03 0.03 65 1007.1
20180720235110 76 102 5.0 10.0 0.00 0.03 0.03 64 1007.0
20180720234109 77 173 4.0 9.0 0.00 0.03 0.03 64 1007.0
20180720233110 77 210 3.0 12.0 0.00 0.03 0.03 64 1006.9
20180720232109 77 232 3.0 13.0 0.00 0.03 0.03 65 1006.9
20180720231110 78 168 5.0 13.0 0.00 0.03 0.03 67 1006.8
20180720230118 78 173 2.0 9.0 0.00 0.03 0.03 67 1006.9
20180720225109 78 169 3.0 7.0 0.00 0.03 0.03 68 1006.7
20180720224109 78 186 3.0 12.0 0.00 0.03 0.03 69 1006.4
20180720223110 78 134 2.0 10.0 0.00 0.03 0.03 72 1006.7
20180720222110 79 187 5.0 12.0 0.00 0.03 0.03 72 1006.8
20180720221110 78 103 3.0 9.0 0.00 0.03 0.03 74 1006.9
20180720220118 78 245 4.0 15.0 0.00 0.03 0.03 74 1006.8
20180720215110 78 75 5.0 14.0 0.00 0.03 0.03 74 1007.0
20180720214110 78 170 5.0 12.0 0.00 0.03 0.03 74 1007.4
20180720213110 79 196 5.0 14.0 0.00 0.03 0.03 73 1007.0
20180720212112 79 172 5.0 12.0 0.00 0.03 0.03 71 1006.8
20180720211109 80 149 5.0 13.0 0.00 0.03 0.03 69 1006.9
20180720210118 80 215 3.0 14.0 0.00 0.03 0.03 70 1007.2
20180720205110 81 165 6.0 18.0 0.00 0.03 0.03 69 1007.4
20180720204109 80 138 4.0 13.0 0.00 0.03 0.03 70 1007.3
20180720203110 80 155 7.0 13.0 0.00 0.03 0.03 71 1007.4
20180720202110 80 193 6.0 16.0 0.00 0.03 0.03 70 1007.1
20180720201109 80 138 7.0 12.0 0.00 0.03 0.03 71 1007.2
20180720200118 79 106 3.0 15.0 0.00 0.03 0.03 74 1007.2
20180720195110 78 65 4.0 13.0 0.00 0.03 0.03 77 1007.1
20180720194110 77 132 5.0 14.0 0.00 0.03 0.03 81 1007.3
20180720193110 77 95 5.0 14.0 0.00 0.03 0.03 86 1007.4
20180720192109 75 101 4.0 13.0 0.00 0.03 0.03 87 1007.6
20180720191109 74 119 4.0 12.0 0.01 0.03 0.03 87 1008.0
20180720190118 74 148 3.0 7.0 0.01 0.03 0.03 86 1008.4
20180720185109 73 112 3.0 6.0 0.01 0.03 0.03 86 1008.5
20180720184110 73 171 2.0 6.0 0.02 0.03 0.03 86 1008.6
20180720183110 73 151 2.0 6.0 0.02 0.03 0.03 86 1009.0
20180720182110 73 136 2.0 6.0 0.02 0.03 0.03 86 1009.5
20180720181109 73 98 2.0 5.0 0.01 0.02 0.02 86 1009.6
20180720180118 74 98 2.0 7.0 0.02 0.02 0.02 85 1010.0
20180720175110 74 214 1.0 3.0 0.02 0.02 0.02 84 1010.1
20180720174109 74 197 1.0 3.0 0.01 0.01 0.01 84 1010.3
20180720173110 74 179 1.0 5.0 0.01 0.01 0.01 83 1010.5
20180720172110 74 173 1.0 3.0 0.01 0.01 0.01 82 1010.5
20180720171110 75 165 1.0 6.0 0.01 0.01 0.01 80 1010.5
20180720170118 75 167 3.0 9.0 0.00 0.00 0.00 78 1010.5
20180720165109 76 259 4.0 12.0 0.00 0.00 0.00 75 1010.5
20180720164110 78 226 3.0 12.0 0.00 0.00 0.00 70 1010.5
20180720163110 78 206 3.0 7.0 0.00 0.00 0.00 68 1010.2
20180720162110 79 177 3.0 12.0 0.00 0.00 0.00 66 1010.1
20180720161110 80 239 3.0 9.0 0.00 0.00 0.00 65 1010.2
20180720160119 81 244 3.0 6.0 0.00 0.00 0.00 65 1010.1
20180720155110 81 236 5.0 9.0 0.00 0.00 0.00 62 1010.1
20180720154110 82 174 3.0 9.0 0.00 0.00 0.00 62 1009.9
20180720153110 82 185 4.0 8.0 0.00 0.00 0.00 61 1010.0
20180720152110 82 216 3.0 10.0 0.00 0.00 0.00 61 1010.1
20180720151110 82 225 5.0 9.0 0.00 0.00 0.00 58 1010.2
20180720150119 82 243 4.0 10.0 0.00 0.00 0.00 60 1010.2
20180720145110 83 190 5.0 12.0 0.00 0.00 0.00 59 1010.2
20180720144110 81 156 2.0 12.0 0.00 0.00 0.00 63 1010.1
20180720143110 81 217 3.0 10.0 0.00 0.00 0.00 63 1010.2
20180720142110 81 201 3.0 9.0 0.00 0.00 0.00 66 1010.1
20180720141110 81 151 3.0 10.0 0.00 0.00 0.00 66 1010.3
20180720140119 81 174 3.0 6.0 0.00 0.00 0.00 69 1010.1
20180720135110 80 152 2.0 7.0 0.00 0.00 0.00 71 1010.1
20180720134110 79 148 2.0 7.0 0.00 0.00 0.00 72 1010.2
20180720133110 78 148 2.0 7.0 0.00 0.00 0.00 74 1010.2
20180720132110 78 166 3.0 6.0 0.00 0.00 0.00 75 1010.1
20180720131110 77 149 2.0 6.0 0.00 0.00 0.00 77 1010.2
20180720130118 77 229 2.0 8.0 0.00 0.00 0.00 78 1010.2
20180720125110 75 170 2.0 8.0 0.00 0.00 0.00 80 1010.3
20180720124109 75 169 2.0 5.0 0.00 0.00 0.00 82 1010.4
20180720123110 74 144 1.0 3.0 0.00 0.00 0.00 83 1010.5
20180720122110 73 175 1.0 6.0 0.00 0.00 0.00 84 1010.5
20180720121110 72 105 1.0 5.0 0.00 0.00 0.00 87 1010.5
20180720120118 71 140 1.0 3.0 0.00 0.00 0.00 88 1010.6
20180720115110 71 96 0.0 3.0 0.00 0.00 0.00 90 1010.6
20180720114110 70 94 0.0 3.0 0.00 0.00 0.00 91 1010.6
20180720113110 69 98 2.0 3.0 0.00 0.00 0.00 92 1010.6
20180720112110 69 105 0.0 0.0 0.00 0.00 0.00 92 1010.6
20180720111110 68 107 0.0 0.0 0.00 0.00 0.00 93 1010.5
20180720110118 68 69 0.0 0.0 0.00 0.00 0.00 92 1010.6
20180720105110 67 64 0.0 0.0 0.00 0.00 0.00 92 1010.6
20180720104109 67 64 0.0 0.0 0.00 0.00 0.00 92 1010.7
20180720103111 67 64 0.0 0.0 0.00 0.00 0.00 92 1010.8
20180720102110 67 64 0.0 0.0 0.00 0.00 0.00 91 1010.9
20180720101110 67 64 0.0 0.0 0.00 0.00 0.00 91 1010.7
20180720100118 67 64 0.0 0.0 0.00 0.00 0.00 91 1010.7
20180720095110 67 64 0.0 0.0 0.00 0.00 0.00 91 1010.7
20180720094110 67 64 0.0 0.0 0.00 0.00 0.00 91 1010.7
20180720093112 67 64 0.0 0.0 0.00 0.00 0.00 91 1010.8
20180720092110 68 64 0.0 0.0 0.00 0.00 0.00 91 1010.9
20180720091110 68 64 0.0 0.0 0.00 0.00 0.00 91 1010.8
20180720090118 68 64 0.0 0.0 0.00 0.00 0.00 91 1011.0
20180720085110 68 64 0.0 0.0 0.00 0.00 0.00 91 1011.1
20180720084110 68 64 0.0 0.0 0.00 0.00 0.00 91 1011.2
20180720083110 68 64 0.0 0.0 0.00 0.00 0.00 90 1011.3
20180720082110 68 64 0.0 0.0 0.00 0.00 0.00 90 1011.5
20180720081111 68 64 0.0 0.0 0.00 0.00 0.00 89 1011.7
20180720080118 68 64 0.0 0.0 0.00 0.00 0.00 88 1011.8
20180720075110 68 64 0.0 0.0 0.00 0.00 0.00 88 1011.8